Time,TemperatureF,DewpointF,PressureIn,WindDirection,WindDirectionDegrees,WindSpeedMPH,WindSpeedGustMPH,Humidity,HourlyPrecipIn,Conditions,Clouds,dailyrainin,SoftwareType,DateUTC
2013-07-21 00:50:00,79.3,67.4,29.85,SSE,168,0.0,3.0,67,0.00,,,0.00,Weather View 32 v70,2013-07-21 05:50:00,
2013-07-21 00:55:00,79.3,67.8,29.85,South,169,3.0,4.0,68,0.00,,,0.00,Weather View 32 v70,2013-07-21 05:55:00,
2013-07-21 00:59:00,79.3,67.8,29.85,SSE,168,4.0,4.0,68,0.00,,,0.00,Weather View 32 v70,2013-07-21 05:59:00,
2013-07-21 01:04:00,79.3,68.2,29.85,South,171,3.0,5.0,69,0.00,,,0.00,Weather View 32 v70,2013-07-21 06:04:00,
2013-07-21 01:10:00,79.3,68.2,29.85,South,172,0.0,5.0,69,0.00,,,0.00,Weather View 32 v70,2013-07-21 06:10:00,
2013-07-21 01:30:00,79.3,68.2,29.85,South,169,3.0,5.0,69,0.00,,,0.00,Weather View 32 v70,2013-07-21 06:30:00,
2013-07-21 01:35:00,79.3,68.2,29.85,South,171,3.0,5.0,69,0.00,,,0.00,Weather View 32 v70,2013-07-21 06:35:00,
2013-07-21 01:40:00,79.3,68.2,29.85,South,172,0.0,5.0,69,0.00,,,0.00,Weather View 32 v70,2013-07-21 06:40:00,
2013-07-21 01:45:00,79.2,68.1,29.85,South,170,0.0,5.0,69,0.00,,,0.00,Weather View 32 v70,2013-07-21 06:45:00,
2013-07-21 01:50:00,79.2,68.5,29.85,South,169,0.0,5.0,70,0.00,,,0.00,Weather View 32 v70,2013-07-21 06:50:00,
2013-07-21 02:00:00,79.2,68.5,29.85,South,171,0.0,5.0,70,0.00,,,0.00,Weather View 32 v70,2013-07-21 07:00:00,
2013-07-21 02:05:00,79.2,68.5,29.85,SSE,165,3.0,4.0,70,0.00,,,0.00,Weather View 32 v70,2013-07-21 07:05:00,
2013-07-21 02:15:00,79.2,68.5,29.85,South,175,0.0,4.0,70,0.00,,,0.00,Weather View 32 v70,2013-07-21 07:15:00,
2013-07-21 02:20:00,79.2,68.5,29.85,South,175,0.0,4.0,70,0.00,,,0.00,Weather View 32 v70,2013-07-21 07:20:00,
2013-07-21 02:25:00,79.0,68.3,29.85,South,175,0.0,4.0,70,0.00,,,0.00,Weather View 32 v70,2013-07-21 07:25:00,
2013-07-21 02:30:00,79.0,68.7,29.85,South,173,0.0,4.0,71,0.00,,,0.00,Weather View 32 v70,2013-07-21 07:30:00,
2013-07-21 02:35:00,79.0,68.7,29.85,South,175,0.0,4.0,71,0.00,,,0.00,Weather View 32 v70,2013-07-21 07:35:00,
2013-07-21 02:45:00,79.0,68.7,29.85,South,171,0.0,4.0,71,0.00,,,0.00,Weather View 32 v70,2013-07-21 07:45:00,
2013-07-21 02:55:00,78.8,68.6,29.85,South,175,0.0,4.0,71,0.00,,,0.00,Weather View 32 v70,2013-07-21 07:55:00,
2013-07-21 03:00:00,78.8,68.6,29.85,South,170,0.0,6.0,71,0.00,,,0.00,Weather View 32 v70,2013-07-21 08:00:00,
2013-07-21 03:10:00,78.8,68.1,29.85,South,172,0.0,6.0,70,0.00,,,0.00,Weather View 32 v70,2013-07-21 08:10:00,
2013-07-21 03:20:00,78.8,68.1,29.85,South,175,0.0,6.0,70,0.00,,,0.00,Weather View 32 v70,2013-07-21 08:20:00,
2013-07-21 03:25:00,78.8,68.1,29.85,South,174,0.0,6.0,70,0.00,,,0.00,Weather View 32 v70,2013-07-21 08:25:00,
2013-07-21 03:35:00,78.8,68.1,29.85,South,181,3.0,6.0,70,0.00,,,0.00,Weather View 32 v70,2013-07-21 08:35:00,
2013-07-21 03:40:00,78.8,68.1,29.85,South,175,3.0,6.0,70,0.00,,,0.00,Weather View 32 v70,2013-07-21 08:40:00,
2013-07-21 03:45:00,78.8,68.1,29.85,South,178,2.0,6.0,70,0.00,,,0.00,Weather View 32 v70,2013-07-21 08:45:00,
2013-07-21 03:50:00,78.8,68.1,29.85,South,178,0.0,6.0,70,0.00,,,0.00,Weather View 32 v70,2013-07-21 08:50:00,
2013-07-21 04:00:00,78.8,67.7,29.85,South,182,3.0,5.0,69,0.00,,,0.00,Weather View 32 v70,2013-07-21 09:00:00,
2013-07-21 04:05:00,78.8,67.3,29.85,South,179,0.0,5.0,68,0.00,,,0.00,Weather View 32 v70,2013-07-21 09:05:00,
2013-07-21 04:10:00,78.6,67.6,29.85,South,179,3.0,5.0,69,0.00,,,0.00,Weather View 32 v70,2013-07-21 09:10:00,
2013-07-21 04:20:00,78.6,67.6,29.85,South,188,0.0,5.0,69,0.00,,,0.00,Weather View 32 v70,2013-07-21 09:20:00,
2013-07-21 04:28:00,78.6,67.6,29.85,South,188,0.0,5.0,69,0.00,,,0.00,Weather View 32 v70,2013-07-21 09:28:00,
2013-07-21 04:35:00,78.4,67.4,29.85,South,188,0.0,5.0,69,0.00,,,0.00,Weather View 32 v70,2013-07-21 09:35:00,
2013-07-21 04:40:00,78.3,67.2,29.85,South,188,0.0,5.0,69,0.00,,,0.00,Weather View 32 v70,2013-07-21 09:40:00,
2013-07-21 04:50:00,78.3,66.8,29.85,South,187,0.0,4.0,68,0.00,,,0.00,Weather View 32 v70,2013-07-21 09:50:00,
2013-07-21 05:00:00,78.3,66.4,29.85,South,174,0.0,4.0,67,0.00,,,0.00,Weather View 32 v70,2013-07-21 10:00:00,
2013-07-21 05:05:00,78.3,66.4,29.85,South,175,2.0,4.0,67,0.00,,,0.00,Weather View 32 v70,2013-07-21 10:05:00,
2013-07-21 05:54:00,77.7,66.3,29.88,South,171,0.0,5.0,68,0.00,,,0.00,Weather View 32 v70,2013-07-21 10:54:00,
2013-07-21 06:00:00,77.4,66.4,29.88,South,171,0.0,5.0,69,0.00,,,0.00,Weather View 32 v70,2013-07-21 11:00:00,
2013-07-21 06:10:00,76.6,66.1,29.88,South,171,0.0,5.0,70,0.00,,,0.00,Weather View 32 v70,2013-07-21 11:10:00,
2013-07-21 06:20:00,76.3,66.1,29.88,South,171,0.0,4.0,71,0.00,,,0.00,Weather View 32 v70,2013-07-21 11:20:00,
2013-07-21 06:30:00,75.9,67.0,29.88,South,171,0.0,4.0,74,0.00,,,0.00,Weather View 32 v70,2013-07-21 11:30:00,
2013-07-21 06:35:00,75.7,67.2,29.88,South,171,0.0,2.0,75,0.00,,,0.00,Weather View 32 v70,2013-07-21 11:35:00,
2013-07-21 06:40:00,75.7,67.2,29.88,South,171,0.0,2.0,75,0.00,,,0.00,Weather View 32 v70,2013-07-21 11:40:00,
2013-07-21 06:50:00,75.9,68.2,29.88,South,171,0.0,0.0,77,0.00,,,0.00,Weather View 32 v70,2013-07-21 11:50:00,
2013-07-21 07:00:00,76.3,68.9,29.88,South,171,0.0,0.0,78,0.00,,,0.00,Weather View 32 v70,2013-07-21 12:00:00,
2013-07-21 07:05:00,76.1,69.1,29.88,SW,217,6.0,8.0,79,0.04,,,0.04,Weather View 32 v70,2013-07-21 12:05:00,
2013-07-21 07:15:00,74.3,67.3,29.91,South,183,0.0,8.0,79,0.20,,,0.20,Weather View 32 v70,2013-07-21 12:15:00,
2013-07-21 07:25:00,74.1,67.5,29.88,South,183,0.0,8.0,80,0.20,,,0.20,Weather View 32 v70,2013-07-21 12:25:00,
2013-07-21 07:30:00,74.1,67.5,29.88,South,183,0.0,8.0,80,0.20,,,0.20,Weather View 32 v70,2013-07-21 12:30:00,
2013-07-21 11:35:00,79.3,68.2,29.91,SW,236,4.0,8.0,69,0.00,,,0.24,Weather View 32 v70,2013-07-21 16:35:00,
2013-07-21 11:40:00,77.7,67.9,29.94,South,189,3.0,8.0,72,0.00,,,0.28,Weather View 32 v70,2013-07-21 16:40:00,
2013-07-21 11:45:00,77.2,68.2,29.94,SSW,202,4.0,8.0,74,0.00,,,0.28,Weather View 32 v70,2013-07-21 16:45:00,
2013-07-21 11:55:00,76.8,69.4,29.94,South,169,4.0,8.0,78,0.00,,,0.28,Weather View 32 v70,2013-07-21 16:55:00,
2013-07-21 12:00:00,76.8,69.4,29.94,SSW,202,0.0,8.0,78,0.00,,,0.28,Weather View 32 v70,2013-07-21 17:00:00,
2013-07-21 12:10:00,77.2,69.8,29.94,South,178,0.0,8.0,78,0.00,,,0.28,Weather View 32 v70,2013-07-21 17:10:00,
2013-07-21 12:15:00,77.2,69.8,29.94,South,183,3.0,8.0,78,0.00,,,0.28,Weather View 32 v70,2013-07-21 17:15:00,
2013-07-21 12:25:00,77.2,69.8,29.94,SSE,164,0.0,8.0,78,0.00,,,0.28,Weather View 32 v70,2013-07-21 17:25:00,
2013-07-21 12:32:00,77.4,69.9,29.94,SSE,168,0.0,8.0,78,0.00,,,0.28,Weather View 32 v70,2013-07-21 17:32:00,
2013-07-21 12:40:00,77.9,70.5,29.94,South,173,0.0,6.0,78,0.00,,,0.28,Weather View 32 v70,2013-07-21 17:40:00,
2013-07-21 12:50:00,78.4,71.0,29.94,South,171,2.0,6.0,78,0.00,,,0.28,Weather View 32 v70,2013-07-21 17:50:00,
2013-07-21 12:55:00,79.0,71.5,29.91,SSW,204,0.0,6.0,78,0.00,,,0.28,Weather View 32 v70,2013-07-21 17:55:00,
2013-07-21 13:00:00,79.3,71.1,29.91,SSW,196,4.0,6.0,76,0.00,,,0.28,Weather View 32 v70,2013-07-21 18:00:00,
2013-07-21 13:10:00,80.1,70.2,29.91,SSE,164,0.0,9.0,72,0.00,,,0.28,Weather View 32 v70,2013-07-21 18:10:00,
2013-07-21 13:15:00,80.1,69.3,29.91,South,180,3.0,9.0,70,0.00,,,0.28,Weather View 32 v70,2013-07-21 18:15:00,
2013-07-21 13:20:00,80.1,68.5,29.91,SSE,152,0.0,9.0,68,0.00,,,0.28,Weather View 32 v70,2013-07-21 18:20:00,
2013-07-21 13:30:00,80.1,68.5,29.91,South,178,3.0,9.0,68,0.00,,,0.28,Weather View 32 v70,2013-07-21 18:30:00,
2013-07-21 13:40:00,80.8,68.8,29.91,SSW,208,2.0,9.0,67,0.00,,,0.28,Weather View 32 v70,2013-07-21 18:40:00,
2013-07-21 13:45:00,81.1,68.7,29.91,South,171,4.0,9.0,66,0.00,,,0.28,Weather View 32 v70,2013-07-21 18:45:00,
2013-07-21 13:55:00,81.1,66.8,29.91,SSE,166,4.0,9.0,62,0.00,,,0.28,Weather View 32 v70,2013-07-21 18:55:00,
2013-07-21 14:00:00,81.0,67.1,29.91,SSW,204,4.0,9.0,63,0.00,,,0.28,Weather View 32 v70,2013-07-21 19:00:00,
2013-07-21 14:10:00,80.8,66.5,29.91,SSW,200,2.0,9.0,62,0.00,,,0.28,Weather View 32 v70,2013-07-21 19:10:00,
2013-07-21 14:15:00,80.6,65.9,29.91,South,191,4.0,9.0,61,0.00,,,0.28,Weather View 32 v70,2013-07-21 19:15:00,
2013-07-21 14:20:00,80.4,67.1,29.91,SSE,153,6.0,9.0,64,0.00,,,0.28,Weather View 32 v70,2013-07-21 19:20:00,
2013-07-21 14:30:00,78.4,66.1,29.91,SSE,164,5.0,13.0,66,0.00,,,0.28,Weather View 32 v70,2013-07-21 19:30:00,
2013-07-21 14:35:00,77.2,67.0,29.91,SSW,213,6.0,13.0,71,0.00,,,0.28,Weather View 32 v70,2013-07-21 19:35:00,
2013-07-21 14:45:00,75.7,67.6,29.91,NNW,338,0.0,13.0,76,0.04,,,0.31,Weather View 32 v70,2013-07-21 19:45:00,
2013-07-21 14:55:00,75.6,68.6,29.91,West,276,0.0,13.0,79,0.04,,,0.31,Weather View 32 v70,2013-07-21 19:55:00,
2013-07-21 15:00:00,75.4,68.4,29.91,SW,214,2.0,13.0,79,0.04,,,0.31,Weather View 32 v70,2013-07-21 20:00:00,
2013-07-21 15:05:00,75.4,68.4,29.91,WNW,299,3.0,13.0,79,0.04,,,0.31,Weather View 32 v70,2013-07-21 20:05:00,
2013-07-21 15:10:00,75.2,68.2,29.91,West,267,0.0,13.0,79,0.04,,,0.31,Weather View 32 v70,2013-07-21 20:10:00,
2013-07-21 15:20:00,75.2,68.6,29.91,SSW,198,0.0,13.0,80,0.04,,,0.31,Weather View 32 v70,2013-07-21 20:20:00,
2013-07-21 15:30:00,75.4,68.8,29.91,SSW,202,0.0,6.0,80,0.04,,,0.31,Weather View 32 v70,2013-07-21 20:30:00,
2013-07-21 15:40:00,75.4,68.8,29.91,South,170,0.0,6.0,80,0.04,,,0.31,Weather View 32 v70,2013-07-21 20:40:00,
2013-07-21 15:45:00,75.4,68.4,29.91,South,179,0.0,6.0,79,0.00,,,0.31,Weather View 32 v70,2013-07-21 20:45:00,
2013-07-21 15:50:00,75.6,68.6,29.91,South,175,0.0,6.0,79,0.00,,,0.31,Weather View 32 v70,2013-07-21 20:50:00,
2013-07-21 15:55:00,75.7,68.7,29.91,South,175,0.0,6.0,79,0.00,,,0.31,Weather View 32 v70,2013-07-21 20:55:00,
2013-07-21 16:05:00,76.1,68.7,29.91,South,177,0.0,6.0,78,0.00,,,0.31,Weather View 32 v70,2013-07-21 21:05:00,
2013-07-21 16:15:00,76.5,69.1,29.91,South,173,2.0,6.0,78,0.00,,,0.31,Weather View 32 v70,2013-07-21 21:15:00,
2013-07-21 16:25:00,77.2,69.4,29.91,South,171,0.0,6.0,77,0.00,,,0.31,Weather View 32 v70,2013-07-21 21:25:00,
2013-07-21 16:30:00,77.7,69.5,29.91,South,171,0.0,6.0,76,0.00,,,0.31,Weather View 32 v70,2013-07-21 21:30:00,
2013-07-21 16:35:00,78.1,69.5,29.91,South,178,0.0,6.0,75,0.00,,,0.31,Weather View 32 v70,2013-07-21 21:35:00,
2013-07-21 16:45:00,78.3,68.5,29.88,South,183,0.0,6.0,72,0.00,,,0.31,Weather View 32 v70,2013-07-21 21:45:00,
2013-07-21 16:50:00,78.3,68.5,29.88,South,176,3.0,6.0,72,0.00,,,0.31,Weather View 32 v70,2013-07-21 21:50:00,
2013-07-21 16:55:00,78.3,68.5,29.88,SSE,165,3.0,6.0,72,0.00,,,0.31,Weather View 32 v70,2013-07-21 21:55:00,
2013-07-21 17:00:00,78.3,68.0,29.88,SSE,164,0.0,6.0,71,0.00,,,0.31,Weather View 32 v70,2013-07-21 22:00:00,
2013-07-21 17:10:00,78.4,68.6,29.88,SSE,164,0.0,6.0,72,0.00,,,0.31,Weather View 32 v70,2013-07-21 22:10:00,
2013-07-21 17:15:00,78.8,68.6,29.88,SSE,166,2.0,6.0,71,0.00,,,0.31,Weather View 32 v70,2013-07-21 22:15:00,
2013-07-21 17:20:00,79.2,68.5,29.88,South,170,4.0,6.0,70,0.00,,,0.31,Weather View 32 v70,2013-07-21 22:20:00,
2013-07-21 17:25:00,79.3,68.2,29.88,SSE,163,3.0,8.0,69,0.00,,,0.31,Weather View 32 v70,2013-07-21 22:25:00,
2013-07-21 17:35:00,79.5,68.4,29.88,South,181,2.0,8.0,69,0.00,,,0.31,Weather View 32 v70,2013-07-21 22:35:00,
2013-07-21 17:45:00,79.9,68.3,29.88,SSW,193,4.0,8.0,68,0.00,,,0.31,Weather View 32 v70,2013-07-21 22:45:00,
2013-07-21 17:50:00,80.1,68.9,29.88,SSE,164,0.0,8.0,69,0.00,,,0.31,Weather View 32 v70,2013-07-21 22:50:00,
2013-07-21 17:55:00,80.4,68.8,29.88,South,171,4.0,8.0,68,0.00,,,0.31,Weather View 32 v70,2013-07-21 22:55:00,
2013-07-21 18:05:00,80.8,68.8,29.88,SSE,167,0.0,8.0,67,0.00,,,0.31,Weather View 32 v70,2013-07-21 23:05:00,
2013-07-21 18:10:00,80.4,68.8,29.88,South,184,3.0,8.0,68,0.00,,,0.31,Weather View 32 v70,2013-07-21 23:10:00,
2013-07-21 18:20:00,79.7,68.6,29.88,SSE,167,3.0,8.0,69,0.00,,,0.31,Weather View 32 v70,2013-07-21 23:20:00,
2013-07-21 18:25:00,79.3,68.2,29.88,SSW,207,4.0,7.0,69,0.00,,,0.31,Weather View 32 v70,2013-07-21 23:25:00,
2013-07-21 18:30:00,79.2,68.5,29.88,South,183,3.0,7.0,70,0.00,,,0.31,Weather View 32 v70,2013-07-21 23:30:00,
2013-07-21 18:36:00,79.0,68.3,29.88,South,183,4.0,7.0,70,0.00,,,0.31,Weather View 32 v70,2013-07-21 23:36:00,
2013-07-21 18:45:00,78.8,68.6,29.88,South,170,3.0,7.0,71,0.00,,,0.31,Weather View 32 v70,2013-07-21 23:45:00,
2013-07-21 18:55:00,78.6,68.8,29.88,SSE,165,3.0,7.0,72,0.00,,,0.31,Weather View 32 v70,2013-07-21 23:55:00,
2013-07-21 19:00:00,78.6,68.8,29.88,South,181,4.0,7.0,72,0.00,,,0.31,Weather View 32 v70,2013-07-22 00:00:00,
2013-07-21 19:10:00,78.4,68.6,29.88,South,173,0.0,7.0,72,0.00,,,0.31,Weather View 32 v70,2013-07-22 00:10:00,
2013-07-21 19:15:00,78.4,68.6,29.88,South,178,3.0,7.0,72,0.00,,,0.31,Weather View 32 v70,2013-07-22 00:15:00,
2013-07-21 19:20:00,78.3,68.5,29.88,South,175,0.0,7.0,72,0.00,,,0.31,Weather View 32 v70,2013-07-22 00:20:00,
2013-07-21 19:30:00,78.1,67.9,29.88,South,175,3.0,6.0,71,0.00,,,0.31,Weather View 32 v70,2013-07-22 00:30:00,
2013-07-21 19:35:00,78.1,67.9,29.88,South,175,2.0,6.0,71,0.00,,,0.31,Weather View 32 v70,2013-07-22 00:35:00,
2013-07-21 19:40:00,78.1,67.5,29.88,South,175,0.0,6.0,70,0.00,,,0.31,Weather View 32 v70,2013-07-22 00:40:00,
2013-07-21 19:45:00,77.9,67.3,29.88,South,175,0.0,6.0,70,0.00,,,0.31,Weather View 32 v70,2013-07-22 00:45:00,
2013-07-21 19:55:00,77.7,67.5,29.88,South,175,0.0,5.0,71,0.00,,,0.31,Weather View 32 v70,2013-07-22 00:55:00,
2013-07-21 20:05:00,77.7,67.9,29.88,South,175,0.0,5.0,72,0.00,,,0.31,Weather View 32 v70,2013-07-22 01:05:00,
2013-07-21 20:10:00,77.5,67.8,29.88,South,175,0.0,5.0,72,0.00,,,0.31,Weather View 32 v70,2013-07-22 01:10:00,
2013-07-21 20:15:00,77.5,67.8,29.88,South,175,0.0,5.0,72,0.00,,,0.31,Weather View 32 v70,2013-07-22 01:15:00,
2013-07-21 20:20:00,77.5,68.2,29.88,South,175,0.0,5.0,73,0.00,,,0.31,Weather View 32 v70,2013-07-22 01:20:00,
2013-07-21 20:25:00,77.5,68.2,29.88,South,175,0.0,5.0,73,0.00,,,0.31,Weather View 32 v70,2013-07-22 01:25:00,
2013-07-21 20:35:00,77.5,68.2,29.88,South,175,0.0,5.0,73,0.00,,,0.31,Weather View 32 v70,2013-07-22 01:35:00,
2013-07-21 20:45:00,77.4,68.0,29.88,South,175,0.0,0.0,73,0.00,,,0.31,Weather View 32 v70,2013-07-22 01:45:00,
2013-07-21 20:50:00,77.5,67.8,29.88,South,175,0.0,0.0,72,0.00,,,0.31,Weather View 32 v70,2013-07-22 01:50:00,
2013-07-21 21:00:00,77.5,66.9,29.88,South,175,0.0,4.0,70,0.00,,,0.31,Weather View 32 v70,2013-07-22 02:00:00,
2013-07-21 21:05:00,77.7,66.7,29.88,South,171,3.0,4.0,69,0.00,,,0.31,Weather View 32 v70,2013-07-22 02:05:00,
2013-07-21 21:10:00,77.7,66.7,29.88,South,172,0.0,4.0,69,0.00,,,0.31,Weather View 32 v70,2013-07-22 02:10:00,
2013-07-21 21:15:00,77.7,66.7,29.88,South,172,0.0,4.0,69,0.00,,,0.31,Weather View 32 v70,2013-07-22 02:15:00,
2013-07-21 21:25:00,77.7,67.1,29.88,South,172,0.0,4.0,70,0.00,,,0.31,Weather View 32 v70,2013-07-22 02:25:00,
2013-07-21 21:30:00,77.7,67.1,29.88,South,174,0.0,4.0,70,0.00,,,0.31,Weather View 32 v70,2013-07-22 02:30:00,
2013-07-21 21:35:00,77.7,67.5,29.88,South,174,0.0,4.0,71,0.00,,,0.31,Weather View 32 v70,2013-07-22 02:35:00,
2013-07-21 21:40:00,77.5,67.4,29.88,South,172,0.0,4.0,71,0.00,,,0.31,Weather View 32 v70,2013-07-22 02:40:00,
2013-07-21 21:50:00,77.5,67.8,29.88,South,172,3.0,4.0,72,0.00,,,0.31,Weather View 32 v70,2013-07-22 02:50:00,
2013-07-21 21:55:00,77.7,68.3,29.88,South,174,4.0,6.0,73,0.00,,,0.31,Weather View 32 v70,2013-07-22 02:55:00,
2013-07-21 22:00:00,77.7,68.3,29.88,South,176,4.0,6.0,73,0.00,,,0.31,Weather View 32 v70,2013-07-22 03:00:00,
2013-07-21 22:10:00,77.7,68.3,29.91,South,177,0.0,8.0,73,0.00,,,0.31,Weather View 32 v70,2013-07-22 03:10:00,
2013-07-21 22:20:00,77.5,68.2,29.91,South,177,0.0,8.0,73,0.00,,,0.31,Weather View 32 v70,2013-07-22 03:20:00,
2013-07-21 22:25:00,77.7,68.7,29.91,South,170,0.0,8.0,74,0.00,,,0.31,Weather View 32 v70,2013-07-22 03:25:00,
2013-07-21 22:30:00,77.7,68.7,29.91,South,175,0.0,8.0,74,0.00,,,0.31,Weather View 32 v70,2013-07-22 03:30:00,
2013-07-21 22:40:00,77.7,68.7,29.91,South,175,0.0,8.0,74,0.00,,,0.31,Weather View 32 v70,2013-07-22 03:40:00,
2013-07-21 22:50:00,77.7,68.7,29.91,South,175,0.0,8.0,74,0.00,,,0.31,Weather View 32 v70,2013-07-22 03:50:00,
2013-07-21 22:55:00,77.7,68.7,29.91,South,175,0.0,8.0,74,0.00,,,0.31,Weather View 32 v70,2013-07-22 03:55:00,
2013-07-21 23:00:00,77.7,68.7,29.91,South,175,0.0,8.0,74,0.00,,,0.31,Weather View 32 v70,2013-07-22 04:00:00,
2013-07-21 23:01:00,77.7,68.7,29.91,South,175,0.0,8.0,74,0.00,,,0.31,Weather View 32 v70,2013-07-22 04:01:00,
2013-07-21 23:10:00,77.5,69.0,29.91,South,175,0.0,6.0,75,0.00,,,0.31,Weather View 32 v70,2013-07-22 04:10:00,
2013-07-21 23:15:00,77.5,69.0,29.91,South,177,0.0,6.0,75,0.00,,,0.31,Weather View 32 v70,2013-07-22 04:15:00,
2013-07-21 23:20:00,77.7,69.1,29.91,South,175,2.0,6.0,75,0.00,,,0.31,Weather View 32 v70,2013-07-22 04:20:00,
2013-07-21 23:25:00,77.7,69.1,29.91,South,175,0.0,5.0,75,0.00,,,0.31,Weather View 32 v70,2013-07-22 04:25:00,
2013-07-21 23:35:00,77.7,69.1,29.91,South,173,0.0,4.0,75,0.00,,,0.31,Weather View 32 v70,2013-07-22 04:35:00,
2013-07-21 23:40:00,77.5,69.0,29.91,South,173,0.0,4.0,75,0.00,,,0.31,Weather View 32 v70,2013-07-22 04:40:00,
2013-07-21 23:45:00,77.5,69.0,29.91,South,172,0.0,4.0,75,0.00,,,0.31,Weather View 32 v70,2013-07-22 04:45:00,
2013-07-21 23:50:00,77.5,69.0,29.91,South,174,3.0,5.0,75,0.00,,,0.31,Weather View 32 v70,2013-07-22 04:50:00,